Location: Zapote
(9.9191°N, 84.0597°W)
Time: 17:38:58
(UTC-06:00)

Transit 2A - Pass Details

Date: 10 March 2021
Orbit: 602 x 957 km, 66.7° (Epoch: 16 April)

Event Time Altitude Azimuth Distance (km) Brightness Sun altitude
Rises 14:31:16 0° 184° (S) 3,547 9.6 46.7°
Reaches altitude 10° 14:34:01 10° 177° (S) 2,564 9.0 46.1°
Maximum altitude 14:39:30 39° 110° (ESE) 1,249 7.2 44.8°
Drops below altitude 10° 14:44:33 10° 42° (NE) 2,352 8.3 43.6°
Sets 14:46:58 0° 35° (NE) 3,222 8.9 43.0°
